sat.trackr.live / text

‹ back to catalog

STARLINK-3932

NORAD 52576 · 2022-051AS

PAYLOAD ACTIVE UNKNOWN

§ Identity

Operator
Country
US
Launch date
2022-05-13
Launch site
AFWTR
Launch vehicle
Mass (kg)
RCS (m²)

Purposes: comms

External: N2YO · Heavens-Above · Gunter

§ Orbital elements

Epoch: 2026-05-25T02:52:37.716672Z

Period
95.44 min
Inclination
53.2138°
Eccentricity
0.0000941
Mean motion
15.08820118 rev/d
Perigee alt
539.2 km
Apogee alt
540.5 km
Semi-major
6,917.9 km
B*
2.4283e-4
RAAN
136.0101°
Arg perigee
77.5194°
Mean anomaly
282.5903°
Rev number
22,312

§ Raw data

STARLINK-39321 52576U 22051AS  26145.11988098  .00003577  00000+0  24283-3 0  99902 52576  53.2138 136.0101 0000941  77.5194 282.5903 15.08820118223121

JSON: /api/v1/satellites/52576 · /tle

For live sub-satellite position, see the globe view (requires WebGL).

§ Visibility from observer

Set your observer location to see the next 7 days of passes ≥ 10°. The values pass through the URL so the page stays shareable.

No JS? Fill the form by hand. The geolocation button needs JavaScript.